Probability
3 3 3 3 3 1 0 0 0 0 0 0 0 0 0 0 0 0 0 0 0 0 0 0 0 0 0 0 0 0 0 0 0 0 0 0 0 0 0 0 0 0 0
3 3 3 3 3 2 1 0 0 0 0 0 0 0 0 0 0 0 0 0 0 0 0 0 0 0 0 0 0 0 0 0 0 0 0 0 0 0 0 0 0 0 0
2 2 2 2 2 2 1 0 0 0 0 0 0 0 0 0 0 0 0 0 0 0 0 0 0 0 0 0 0 0 0 0 0 0 0 0 0 0 0 0 0 0 0
1 1 1 1 1 1 0 0 0 0 0 0 0 0 0 0 0 0 0 0 0 0 0 0 0 0 0 0 0 0 0 0 0 0 0 0 0 0 0 0 0 0 0
0 0 0 0 1 1 1 0 0 0 0 0 0 0 0 0 0 0 0 0 0 0 0 0 0 0 0 0 0 0 0 0 0 0 0 0 0 0 0 0 0 0 0
0 0 0 0 1 2 1 0 0 0 0 0 0 0 0 0 0 0 0 0 0 0 0 0 0 0 0 0 0 0 0 0 0 0 0 0 0 0 0 0 0 0 0
0 0 0 1 2 2 1 0 0 0 0 0 0 0 0 0 0 0 0 0 0 0 0 0 0 0 0 0 0 0 0 0 0 0 0 0 0 0 0 0 0 0 0
0 0 0 1 2 2 1 0 0 0 0 0 0 0 0 0 0 0 0 0 0 0 0 0 0 0 0 0 0 0 0 0 0 0 0 0 0 0 0 0 0 0 0
0 0 0 0 1 2 2 0 0 0 0 0 0 0 0 0 0 0 0 0 0 0 0 0 0 0 0 0 0 0 0 0 0 0 0 0 0 0 0 0 0 0 0
0 0 0 0 1 2 1 0 0 0 0 0 0 0 0 0 0 0 0 0 0 0 0 0 0 0 0 0 0 0 0 0 0 0 0 0 0 0 0 0 0 0 0
0 0 0 0 1 2 1 0 0 0 0 0 0 0 0 0 0 0 0 0 0 0 0 0 0 0 0 0 0 0 0 0 0 0 0 0 0 0 0 0 0 0 0
0 0 0 0 1 1 1 0 0 0 0 0 0 0 0 0 0 0 0 0 0 0 0 0 0 0 0 0 0 0 0 0 0 0 0 0 0 0 0 0 0 0 0
0 0 0 0 0 0 0 0 0 0 0 0 0 0 0 0 0 0 0 0 0 0 0 0 0 0 0 0 0 0 0 0 0 0 0 0 0 0 0 0 0 0 0
0 0 0 0 0 0 0 0 0 0 0 0 0 0 0 0 0 0 0 0 0 0 0 0 0 0 0 0 0 0 0 0 0 0 0 0 0 0 0 0 0 0 0
0 0 0 0 0 0 0 0 0 0 0 0 0 0 0 0 0 0 0 0 0 0 0 0 0 0 0 0 0 0 0 0 0 0 0 0 0 0 0 0 0 0 0
0 0 0 0 0 0 0 0 0 0 0 0 0 0 0 0 0 0 0 0 0 0 0 0 0 0 0 0 0 0 0 0 0 0 0 0 0 0 0 0 0 0 0
0 0 0 0 0 0 0 0 0 0 0 0 0 0 0 0 0 0 0 0 0 0 0 0 0 0 0 0 0 0 0 0 0 0 0 0 0 0 0 0 0 0 0
0 0 0 0 0 0 0 0 0 0 0 0 0 0 0 0 0 0 0 0 0 0 0 0 0 0 0 0 0 0 0 0 0 0 0 0 0 0 0 0 0 0 0
0 0 0 0 0 0 0 0 0 0 0 0 0 0 0 0 0 0 0 0 0 0 0 0 0 0 0 0 0 0 0 0 0 0 0 0 0 0 0 0 0 0 0
0 0 0 0 0 0 0 0 0 0 0 0 0 0 0 0 0 0 0 0 0 0 0 0 0 0 0 0 0 0 0 0 0 0 0 0 0 0 0 0 0 0 0
0 0 0 0 0 0 0 0 0 0 0 0 0 0 0 0 0 0 0 0 0 0 0 0 0 0 0 0 0 0 0 0 0 0 0 0 0 0 0 0 0 0 0
0 0 0 0 0 0 0 0 0 0 0 0 0 0 0 0 0 0 0 0 0 0 0 0 0 0 0 0 0 0 0 0 0 0 0 0 0 0 0 0 0 0 0
0 0 0 0 0 0 0 0 0 0 0 0 0 0 0 0 0 0 0 0 0 0 0 0 0 0 0 0 0 0 0 0 0 0 0 0 0 0 0 0 0 0 0
0 0 0 0 0 0 0 0 0 0 0 0 0 0 0 0 0 0 0 0 0 0 0 0 0 0 0 0 0 0 0 0 0 0 0 0 0 0 0 0 0 0 0
0 0 0 0 0 0 0 0 0 0 0 0 0 0 0 0 0 0 0 0 0 0 0 0 0 0 0 0 0 0 0 0 0 0 0 0 0 0 0 0 0 0 0
0 0 0 0 0 0 0 0 0 0 0 0 0 0 0 0 0 0 0 0 0 0 0 0 0 0 0 0 0 0 0 0 0 0 0 0 0 0 0 0 0 0 0
Wind_Speed
4 3 3 3 3 2 2 2 2 2 2 2 3 3 3 3 2 2 1 4 4 4 5 6 6 6 6 5 5 5 6 6 6 6 6 6 6 6 6 6 6 6 6
4 4 4 3 3 3 3 3 3 3 2 2 3 3 3 3 3 2 2 2 3 4 5 5 5 5 5 4 4 4 5 5 5 6 6 5 5 5 5 5 5 5 5
5 5 4 3 3 3 3 3 3 3 2 2 3 2 2 2 2 2 2 2 2 3 3 4 4 4 4 4 4 4 4 4 5 5 5 4 4 4 4 4 4 4 4
6 5 4 3 3 3 3 3 3 3 3 2 2 2 2 2 2 2 2 2 2 2 2 2 3 3 3 3 4 4 4 4 4 4 4 3 3 3 3 3 3 3 3
6 5 4 4 4 3 3 4 3 3 3 3 3 2 2 2 2 3 2 2 2 2 2 2 3 3 3 3 2 3 3 3 3 3 3 3 3 2 2 1 1 1 2
6 5 4 4 5 4 3 3 4 3 3 3 4 3 2 2 2 2 2 2 2 2 2 2 2 2 3 3 2 1 2 2 2 2 2 2 2 1 1 1 0 0 1
6 5 4 5 5 4 5 5 4 4 2 3 4 3 2 2 2 1 1 1 1 1 2 2 1 1 1 2 2 1 0 1 1 1 1 1 2 2 2 1 1 1 1
6 5 6 5 5 5 5 5 5 3 2 2 3 3 1 1 1 1 0 1 1 1 1 1 1 1 0 0 1 1 1 1 2 1 1 1 2 3 3 3 3 2 2
6 5 6 6 5 5 6 6 6 6 4 1 2 4 4 3 1 1 1 1 1 1 1 1 1 1 1 0 0 1 1 2 3 3 3 3 3 3 3 3 3 4 3
5 6 6 6 6 5 6 6 5 4 6 4 1 1 2 3 3 1 2 1 1 2 2 2 2 2 1 1 1 1 2 3 4 5 5 4 4 4 5 5 5 4 4
4 5 6 6 6 5 6 6 5 5 4 5 4 2 2 1 2 3 2 2 1 2 2 3 2 2 2 2 2 2 3 4 5 6 6 6 6 6 6 6 5 5 5
3 4 5 5 6 5 6 6 6 7 5 5 4 3 4 3 3 3 3 2 2 2 2 2 3 2 2 2 3 3 4 5 6 6 7 6 6 6 6 6 6 6 6
3 5 5 5 5 5 6 6 6 6 6 6 6 4 3 3 3 3 3 2 2 2 1 2 3 3 3 2 3 4 5 5 6 7 8 7 6 5 5 6 6 6 6
4 5 5 5 5 6 6 5 5 5 5 6 6 5 3 3 3 3 3 3 1 1 2 3 2 3 3 3 4 5 4 6 6 7 8 7 5 4 5 6 7 7 7
3 5 5 5 5 5 6 6 5 5 5 5 6 5 4 3 3 3 3 4 4 3 4 4 3 3 3 3 4 3 3 5 6 6 6 6 5 5 5 6 6 7 7
4 4 5 5 5 5 5 5 4 5 5 5 4 5 5 3 3 3 3 3 3 4 4 3 3 2 2 2 4 3 4 5 6 7 7 7 7 6 6 6 7 7 6
4 5 5 5 5 5 5 5 5 5 6 5 5 5 6 4 3 3 3 3 2 2 3 3 2 2 2 3 2 2 2 3 4 7 8 8 7 7 7 7 7 7 7
4 5 5 5 5 5 5 5 6 6 6 6 6 5 5 4 4 3 3 4 3 3 3 3 2 2 3 3 2 2 2 2 3 6 8 8 8 7 7 7 7 7 7
4 4 4 5 5 5 5 5 5 5 6 6 6 6 6 5 5 3 4 4 3 2 2 3 3 2 2 1 1 2 2 2 3 5 7 8 8 8 8 7 7 7 7
4 4 4 4 4 5 5 5 5 5 5 5 5 6 6 6 6 5 4 4 4 3 2 2 2 2 2 1 1 2 2 2 3 3 5 5 7 8 8 8 7 7 8
3 3 3 3 3 3 4 5 5 5 5 5 4 5 5 6 7 6 5 5 5 4 3 3 3 2 2 2 2 2 3 2 3 2 2 3 3 3 4 7 8 8 8
2 3 3 3 3 3 4 6 5 5 5 5 5 4 4 6 7 8 8 8 7 6 5 4 4 4 4 4 3 2 2 2 4 2 2 4 2 4 4 4 7 8 8
2 2 3 3 3 3 5 6 6 4 4 4 5 4 4 4 6 5 6 7 7 8 8 6 6 6 5 5 4 4 4 4 4 2 1 4 2 4 4 5 9 9 9
2 2 2 2 2 3 5 5 6 4 4 4 4 4 5 4 5 5 5 4 5 5 6 5 5 5 5 4 5 5 5 3 2 1 1 3 2 3 3 3 8 9 8
1 1 1 2 2 2 4 4 5 3 3 3 3 4 4 4 6 7 5 5 4 3 4 5 5 4 4 4 4 2 2 1 3 2 1 2 2 2 3 3 4 7 8
2 1 1 2 2 2 3 3 4 2 2 2 2 2 4 4 6 6 5 5 5 4 3 2 2 2 2 3 4 4 4 3 2 3 2 2 1 1 3 3 2 3 4
Wind_Direction
153 153 151 148 146 138 138 131 123 120 114 109 104 104 104 98 89 72 67 97 106 118 126 129 128 122 116 110 108 111 109 106 111 110 107 102 96 92 89 80 78 70 75
156 157 155 157 157 155 152 146 138 128 118 110 104 109 115 110 95 89 72 75 95 107 119 129 129 126 123 120 117 116 112 107 112 117 113 105 100 95 89 83 75 73 69
157 157 158 161 166 155 145 132 123 115 111 104 102 108 111 102 95 92 87 67 65 87 113 130 135 129 124 127 124 123 114 104 106 111 114 111 105 101 91 86 77 75 68
158 153 154 160 158 147 145 140 133 124 117 113 105 100 100 100 94 91 85 77 63 53 78 103 121 127 128 125 122 122 114 109 104 101 103 111 119 113 100 85 79 69 66
159 153 155 154 149 142 147 150 139 139 132 119 103 85 82 98 104 101 92 88 79 70 64 73 79 87 97 105 116 139 136 128 122 111 102 104 116 124 118 109 77 55 43
159 152 152 154 148 141 140 139 139 134 133 130 103 78 59 71 94 106 115 99 88 91 84 75 72 72 77 80 80 95 133 135 124 135 137 146 148 146 160 181 214 327 6
161 156 155 156 157 156 157 148 133 129 122 128 104 76 29 29 65 83 100 109 101 109 104 96 86 71 52 55 57 49 91 141 110 122 211 216 205 208 208 213 252 279 284
167 166 162 166 164 153 153 154 140 134 140 149 132 123 101 349 345 13 126 141 141 118 129 134 125 131 106 56 10 17 314 263 260 260 269 275 246 241 240 241 251 256 278
171 169 169 167 167 163 167 169 162 150 159 185 153 146 155 197 246 311 286 215 197 183 190 183 180 190 181 170 283 323 325 297 275 267 264 261 269 258 255 256 260 259 265
175 172 172 171 171 169 170 175 171 159 157 169 184 151 147 151 155 202 308 292 244 226 215 208 202 204 204 213 243 267 272 274 271 274 269 264 265 269 263 260 261 268 271
179 173 173 173 174 176 177 177 171 169 168 172 173 157 132 111 134 154 217 262 270 246 226 214 209 211 213 217 229 245 253 255 260 268 269 268 268 266 265 267 266 270 273
184 180 177 177 178 179 181 182 179 179 182 181 180 173 166 169 178 168 184 216 239 261 247 224 216 220 220 222 236 243 245 254 260 264 265 267 271 269 266 266 266 271 277
191 192 185 184 183 184 184 180 179 185 186 186 191 195 193 191 171 162 161 186 232 267 273 252 229 223 225 222 234 234 239 250 258 262 264 266 271 274 271 273 273 272 276
197 189 187 187 187 184 185 181 184 191 190 193 198 196 195 201 183 175 167 164 200 261 261 252 250 227 225 220 235 231 237 244 252 260 265 268 277 278 276 274 277 277 275
189 182 182 183 185 186 185 181 190 195 190 195 198 198 199 202 193 194 180 173 176 215 245 237 240 239 229 223 232 224 234 244 249 255 259 266 272 269 267 269 272 274 272
182 178 179 183 185 187 186 184 189 192 190 196 194 195 202 202 196 194 193 193 192 199 230 229 231 242 228 241 234 227 234 248 248 251 252 257 260 260 259 262 263 264 266
177 181 181 181 185 188 188 189 195 190 195 198 197 198 204 195 193 195 189 191 202 194 226 253 243 230 224 235 248 239 237 234 249 253 256 258 255 253 255 258 259 261 264
182 185 180 180 185 190 190 192 198 196 199 200 201 199 206 197 197 198 195 200 207 205 204 233 245 229 233 232 235 238 252 252 251 255 258 259 252 249 252 256 258 260 262
180 181 176 181 187 191 196 199 198 200 204 203 201 200 203 194 201 200 198 202 205 205 202 211 238 235 237 233 237 258 262 264 265 262 260 255 249 249 252 255 257 259 261
176 181 186 188 191 192 197 200 199 200 205 206 204 203 202 200 204 201 201 202 196 196 196 205 226 228 231 231 200 238 272 267 268 273 260 256 256 254 254 257 259 260 261
182 180 179 182 184 188 197 196 200 200 202 204 204 204 207 206 208 207 205 199 193 199 199 208 221 224 226 211 222 220 247 277 280 259 267 255 252 247 249 259 260 261 264
179 174 182 186 191 206 207 204 201 200 201 202 207 208 208 209 215 217 218 210 202 200 204 210 222 228 236 224 219 218 231 263 276 251 243 265 236 246 252 247 266 269 268
177 184 196 197 204 213 208 208 206 198 198 203 204 205 213 216 214 215 221 221 222 222 214 211 220 227 228 219 210 219 220 231 248 242 224 264 245 250 249 258 268 268 269
173 185 197 206 210 222 212 207 201 199 199 205 207 208 212 220 219 210 208 216 224 228 227 224 223 228 226 215 207 217 223 237 278 264 189 257 273 261 271 260 264 265 270
168 184 192 195 208 233 221 207 196 196 197 206 211 209 209 217 220 209 201 210 223 237 241 229 231 234 235 228 208 180 183 222 271 260 202 229 266 287 279 262 266 272 276
177 174 188 202 207 220 219 205 194 191 198 205 207 213 217 219 216 208 203 204 216 225 219 226 233 247 234 219 205 198 199 205 243 256 218 205 241 287 292 275 266 270 271